Starlink 31438

operational
NORAD ID: 59234 Int'l Des: 2024-049 Owner: SPXS Country: US Constellation: starlink
LEOCIRCULAR

关于 Starlink 31438

正在加载描述...

实时位置

正在加载3D地球...

即将过境

高度历史

Altitude vs Time

uPlot chart will show altitude changes over time

两行轨道根数

1 59234U 24049D 25302.98429062 .00000378 00000-0 23265-4 0 9994
2 59234 43.0013 150.6793 0001552 273.8964 86.1710 15.27590938 92530
Epoch: Oct 29, 2025 • Age: 16 hours

当前状态

高度 486.8 km
速度 7.63 km/s
星下点 41.29°N, 18.44°W
发射日期 Mar 16, 2024
运行时间 1.6 years
类型 internet

技术详情

分类 Payload
质量 730.00 kg
干质量 700.00 kg
总质量 730.00 kg
长度 0.30 m
直径 4.10 m
跨度 29.00 m
形状 Box + pan
制造商 SPXS
平台类型 Starlink V2M
阶段状态 In Orbit
所有者/国家 SPXS/US

大型星座

Loading constellations...